Time,TemperatureF,DewpointF,PressureIn,WindDirection,WindDirectionDegrees,WindSpeedMPH,WindSpeedGustMPH,Humidity,HourlyPrecipIn,Conditions,Clouds,dailyrainin,SoftwareType,DateUTC
2013-04-12 00:03:00,34.0,32.0,29.91,SE,144,0.0,-999.0,93,-99.99,,,-99.99,,2013-04-12 05:03:00,
2013-04-12 00:12:00,34.0,32.0,29.91,SE,144,0.0,-999.0,93,-99.99,,,-99.99,,2013-04-12 05:12:00,
2013-04-12 00:32:00,34.0,31.0,29.91,SE,144,0.0,-999.0,90,-99.99,,,-99.99,,2013-04-12 05:32:00,
2013-04-12 00:42:00,34.0,31.0,29.91,SE,144,0.0,-999.0,90,-99.99,,,-99.99,,2013-04-12 05:42:00,
2013-04-12 00:52:00,33.0,30.0,29.91,SE,144,2.0,-999.0,88,-99.99,,,-99.99,,2013-04-12 05:52:00,
2013-04-12 01:02:00,33.0,30.0,29.91,SE,144,2.0,-999.0,88,-99.99,,,-99.99,,2013-04-12 06:02:00,
2013-04-12 01:12:00,33.0,30.0,29.91,SE,144,2.0,-999.0,88,-99.99,,,-99.99,,2013-04-12 06:12:00,
2013-04-12 01:22:00,33.0,29.0,29.91,SE,144,4.0,-999.0,84,-99.99,,,-99.99,,2013-04-12 06:22:00,
2013-04-12 01:32:00,33.0,28.0,29.91,SE,144,5.0,-999.0,82,-99.99,,,-99.99,,2013-04-12 06:32:00,
2013-04-12 01:42:00,33.0,28.0,29.91,SE,144,5.0,-999.0,82,-99.99,,,-99.99,,2013-04-12 06:42:00,
2013-04-12 01:52:00,33.0,28.0,29.91,SE,144,5.0,-999.0,83,-99.99,,,-99.99,,2013-04-12 06:52:00,
2013-04-12 02:01:00,32.0,27.0,29.91,SE,144,3.0,-999.0,83,-99.99,,,-99.99,,2013-04-12 07:01:00,
2013-04-12 02:11:00,32.0,27.0,29.91,SE,144,3.0,-999.0,83,-99.99,,,-99.99,,2013-04-12 07:11:00,
2013-04-12 02:22:00,32.0,27.0,29.92,SE,144,0.0,-999.0,83,-99.99,,,-99.99,,2013-04-12 07:22:00,
2013-04-12 02:32:00,32.0,28.0,29.92,SE,144,0.0,-999.0,84,-99.99,,,-99.99,,2013-04-12 07:32:00,
2013-04-12 02:42:00,32.0,28.0,29.92,SE,144,0.0,-999.0,84,-99.99,,,-99.99,,2013-04-12 07:42:00,
2013-04-12 02:52:00,32.0,28.0,29.92,SE,144,3.0,-999.0,84,-99.99,,,-99.99,,2013-04-12 07:52:00,
2013-04-12 03:03:00,32.0,27.0,29.92,SE,144,0.0,-999.0,83,-99.99,,,-99.99,,2013-04-12 08:03:00,
2013-04-12 03:12:00,32.0,27.0,29.92,SE,144,0.0,-999.0,83,-99.99,,,-99.99,,2013-04-12 08:12:00,
2013-04-12 03:22:00,32.0,28.0,29.92,SE,144,0.0,-999.0,84,-99.99,,,-99.99,,2013-04-12 08:22:00,
2013-04-12 03:32:00,32.0,28.0,29.92,SE,144,1.0,-999.0,84,-99.99,,,-99.99,,2013-04-12 08:32:00,
2013-04-12 03:42:00,32.0,28.0,29.92,SE,144,1.0,-999.0,84,-99.99,,,-99.99,,2013-04-12 08:42:00,
2013-04-12 03:52:00,32.0,27.0,29.92,SE,144,1.0,-999.0,83,-99.99,,,-99.99,,2013-04-12 08:52:00,
2013-04-12 04:02:00,32.0,28.0,29.92,SE,144,1.0,-999.0,84,-99.99,,,-99.99,,2013-04-12 09:02:00,
2013-04-12 04:12:00,32.0,28.0,29.92,SE,144,1.0,-999.0,84,-99.99,,,-99.99,,2013-04-12 09:12:00,
2013-04-12 04:22:00,32.0,28.0,29.92,SE,144,3.0,-999.0,84,-99.99,,,-99.99,,2013-04-12 09:22:00,
2013-04-12 04:32:00,32.0,28.0,29.91,SE,144,4.0,-999.0,84,-99.99,,,-99.99,,2013-04-12 09:32:00,
2013-04-12 04:43:00,32.0,28.0,29.91,SE,144,4.0,-999.0,84,-99.99,,,-99.99,,2013-04-12 09:43:00,
2013-04-12 04:53:00,32.0,28.0,29.91,SE,144,3.0,-999.0,84,-99.99,,,-99.99,,2013-04-12 09:53:00,
2013-04-12 05:03:00,32.0,28.0,29.91,SE,144,3.0,-999.0,84,-99.99,,,-99.99,,2013-04-12 10:03:00,
2013-04-12 05:12:00,32.0,28.0,29.91,SE,144,3.0,-999.0,84,-99.99,,,-99.99,,2013-04-12 10:12:00,
2013-04-12 05:23:00,31.0,27.0,29.91,SE,144,4.0,-999.0,84,-99.99,,,-99.99,,2013-04-12 10:23:00,
2013-04-12 05:34:00,31.0,27.0,29.91,SE,144,3.0,-999.0,84,-99.99,,,-99.99,,2013-04-12 10:34:00,
2013-04-12 05:42:00,31.0,27.0,29.91,SE,144,3.0,-999.0,84,-99.99,,,-99.99,,2013-04-12 10:42:00,
2013-04-12 05:53:00,31.0,27.0,29.91,SE,144,1.0,-999.0,84,-99.99,,,-99.99,,2013-04-12 10:53:00,
2013-04-12 06:02:00,31.0,27.0,29.92,SE,144,0.0,-999.0,84,-99.99,,,-99.99,,2013-04-12 11:02:00,
2013-04-12 06:13:00,31.0,27.0,29.92,SE,144,0.0,-999.0,84,-99.99,,,-99.99,,2013-04-12 11:13:00,
2013-04-12 06:22:00,31.0,26.0,29.91,SE,144,0.0,-999.0,83,-99.99,,,-99.99,,2013-04-12 11:22:00,
2013-04-12 06:32:00,32.0,27.0,29.91,SE,144,0.0,-999.0,83,-99.99,,,-99.99,,2013-04-12 11:32:00,
2013-04-12 06:42:00,32.0,27.0,29.91,SE,144,0.0,-999.0,83,-99.99,,,-99.99,,2013-04-12 11:42:00,
2013-04-12 06:52:00,32.0,28.0,29.91,SE,144,0.0,-999.0,84,-99.99,,,-99.99,,2013-04-12 11:52:00,
2013-04-12 07:02:00,31.0,27.0,29.92,SE,144,0.0,-999.0,85,-99.99,,,-99.99,,2013-04-12 12:02:00,
2013-04-12 07:13:00,31.0,27.0,29.92,SE,144,0.0,-999.0,85,-99.99,,,-99.99,,2013-04-12 12:13:00,
2013-04-12 07:22:00,31.0,27.0,29.91,SE,144,0.0,-999.0,85,-99.99,,,-99.99,,2013-04-12 12:22:00,
2013-04-12 07:32:00,31.0,27.0,29.91,SE,144,0.0,-999.0,86,-99.99,,,-99.99,,2013-04-12 12:32:00,
2013-04-12 07:42:00,31.0,27.0,29.91,SE,144,0.0,-999.0,86,-99.99,,,-99.99,,2013-04-12 12:42:00,
2013-04-12 07:53:00,31.0,28.0,29.92,SE,144,0.0,-999.0,87,-99.99,,,-99.99,,2013-04-12 12:53:00,
2013-04-12 08:03:00,31.0,28.0,29.92,SE,144,0.0,-999.0,87,-99.99,,,-99.99,,2013-04-12 13:03:00,
2013-04-12 08:12:00,31.0,28.0,29.92,SE,144,0.0,-999.0,87,-99.99,,,-99.99,,2013-04-12 13:12:00,
2013-04-12 08:22:00,31.0,27.0,29.93,SE,144,0.0,-999.0,86,-99.99,,,-99.99,,2013-04-12 13:22:00,
2013-04-12 08:32:00,31.0,27.0,29.93,SE,144,0.0,-999.0,85,-99.99,,,-99.99,,2013-04-12 13:32:00,
2013-04-12 08:42:00,31.0,27.0,29.93,SE,144,0.0,-999.0,85,-99.99,,,-99.99,,2013-04-12 13:42:00,
2013-04-12 08:53:00,31.0,27.0,29.93,SE,144,0.0,-999.0,85,-99.99,,,-99.99,,2013-04-12 13:53:00,
2013-04-12 09:03:00,32.0,27.0,29.93,SE,144,0.0,-999.0,83,-99.99,,,-99.99,,2013-04-12 14:03:00,
2013-04-12 09:12:00,32.0,27.0,29.93,SE,144,0.0,-999.0,83,-99.99,,,-99.99,,2013-04-12 14:12:00,
2013-04-12 09:22:00,32.0,27.0,29.94,SE,144,0.0,-999.0,83,-99.99,,,-99.99,,2013-04-12 14:22:00,
2013-04-12 09:32:00,32.0,27.0,29.94,SE,144,0.0,-999.0,83,-99.99,,,-99.99,,2013-04-12 14:32:00,
2013-04-12 09:42:00,32.0,27.0,29.94,SE,144,0.0,-999.0,83,-99.99,,,-99.99,,2013-04-12 14:42:00,
2013-04-12 09:53:00,33.0,29.0,29.95,SE,144,2.0,-999.0,85,-99.99,,,-99.99,,2013-04-12 14:53:00,
2013-04-12 10:02:00,33.0,30.0,29.95,ENE,63,5.0,-999.0,88,-99.99,,,-99.99,,2013-04-12 15:02:00,
2013-04-12 10:12:00,33.0,30.0,29.95,ENE,63,5.0,-999.0,88,-99.99,,,-99.99,,2013-04-12 15:12:00,
2013-04-12 10:22:00,33.0,30.0,29.96,NE,37,5.0,-999.0,88,-99.99,,,-99.99,,2013-04-12 15:22:00,
2013-04-12 10:33:00,33.0,30.0,29.95,NNE,26,5.0,-999.0,89,-99.99,,,-99.99,,2013-04-12 15:33:00,
2013-04-12 10:43:00,33.0,30.0,29.95,NNE,26,5.0,-999.0,89,-99.99,,,-99.99,,2013-04-12 15:43:00,
2013-04-12 10:53:00,33.0,31.0,29.95,NNE,12,5.0,-999.0,91,-99.99,,,-99.99,,2013-04-12 15:53:00,
2013-04-12 11:03:00,33.0,31.0,29.96,North,5,5.0,-999.0,92,-99.99,,,-99.99,,2013-04-12 16:03:00,
2013-04-12 11:13:00,33.0,31.0,29.96,North,5,5.0,-999.0,92,-99.99,,,-99.99,,2013-04-12 16:13:00,
2013-04-12 11:23:00,34.0,32.0,29.96,North,360,5.0,-999.0,93,-99.99,,,-99.99,,2013-04-12 16:23:00,
2013-04-12 11:33:00,34.0,32.0,29.96,North,355,5.0,-999.0,94,-99.99,,,-99.99,,2013-04-12 16:33:00,
2013-04-12 11:42:00,34.0,32.0,29.96,North,355,5.0,-999.0,94,-99.99,,,-99.99,,2013-04-12 16:42:00,
2013-04-12 11:53:00,35.0,34.0,29.96,NNW,340,7.0,-999.0,95,-99.99,,,-99.99,,2013-04-12 16:53:00,
2013-04-12 12:03:00,35.0,33.0,29.96,NW,319,8.0,-999.0,94,-99.99,,,-99.99,,2013-04-12 17:03:00,
2013-04-12 12:12:00,35.0,33.0,29.96,NW,319,8.0,-999.0,94,-99.99,,,-99.99,,2013-04-12 17:12:00,
2013-04-12 12:23:00,36.0,34.0,29.97,NNW,328,8.0,-999.0,94,-99.99,,,-99.99,,2013-04-12 17:23:00,
2013-04-12 12:33:00,36.0,34.0,29.97,NW,324,8.0,-999.0,93,-99.99,,,-99.99,,2013-04-12 17:33:00,
2013-04-12 12:44:00,36.0,34.0,29.97,NW,324,8.0,-999.0,93,-99.99,,,-99.99,,2013-04-12 17:44:00,
2013-04-12 13:09:00,35.0,33.0,29.97,NNW,336,10.0,-999.0,93,-99.99,,,-99.99,,2013-04-12 18:09:00,
2013-04-12 14:26:00,36.0,34.0,29.98,NW,315,13.0,-999.0,94,-99.99,,,-99.99,,2013-04-12 19:26:00,
2013-04-12 14:27:00,36.0,34.0,29.98,NNW,336,12.0,-999.0,94,-99.99,,,-99.99,,2013-04-12 19:27:00,
2013-04-12 14:32:00,36.0,34.0,29.98,NW,323,12.0,-999.0,92,-99.99,,,-99.99,,2013-04-12 19:32:00,
2013-04-12 14:43:00,36.0,34.0,29.98,NW,323,12.0,-999.0,92,-99.99,,,-99.99,,2013-04-12 19:43:00,
2013-04-12 14:53:00,37.0,35.0,29.97,NW,313,12.0,-999.0,91,-99.99,,,-99.99,,2013-04-12 19:53:00,
2013-04-12 15:02:00,37.0,34.0,29.97,NW,315,12.0,-999.0,88,-99.99,,,-99.99,,2013-04-12 20:02:00,
2013-04-12 15:12:00,37.0,34.0,29.97,NW,315,12.0,-999.0,88,-99.99,,,-99.99,,2013-04-12 20:12:00,
2013-04-12 15:22:00,37.0,33.0,29.97,NNW,327,12.0,-999.0,86,-99.99,,,-99.99,,2013-04-12 20:22:00,
2013-04-12 15:32:00,37.0,33.0,29.97,NW,317,12.0,-999.0,85,-99.99,,,-99.99,,2013-04-12 20:32:00,
2013-04-12 15:42:00,37.0,33.0,29.97,NW,317,12.0,-999.0,85,-99.99,,,-99.99,,2013-04-12 20:42:00,
2013-04-12 15:52:00,37.0,33.0,29.98,NNW,331,11.0,-999.0,85,-99.99,,,-99.99,,2013-04-12 20:52:00,
2013-04-12 16:02:00,36.0,32.0,29.98,NNW,331,12.0,-999.0,84,-99.99,,,-99.99,,2013-04-12 21:02:00,
2013-04-12 16:12:00,36.0,32.0,29.98,NNW,331,12.0,-999.0,84,-99.99,,,-99.99,,2013-04-12 21:12:00,
2013-04-12 16:22:00,37.0,32.0,29.98,NNW,337,14.0,-999.0,82,-99.99,,,-99.99,,2013-04-12 21:22:00,
2013-04-12 16:33:00,36.0,31.0,29.98,NNW,337,12.0,-999.0,82,-99.99,,,-99.99,,2013-04-12 21:33:00,
2013-04-12 16:43:00,36.0,31.0,29.98,NNW,337,12.0,-999.0,82,-99.99,,,-99.99,,2013-04-12 21:43:00,
2013-04-12 16:53:00,36.0,31.0,29.98,North,351,12.0,-999.0,83,-99.99,,,-99.99,,2013-04-12 21:53:00,
2013-04-12 17:02:00,36.0,31.0,29.97,NNW,341,12.0,-999.0,82,-99.99,,,-99.99,,2013-04-12 22:02:00,
2013-04-12 17:13:00,36.0,31.0,29.97,NNW,341,12.0,-999.0,82,-99.99,,,-99.99,,2013-04-12 22:13:00,
2013-04-12 17:22:00,36.0,31.0,29.97,NNW,340,10.0,-999.0,83,-99.99,,,-99.99,,2013-04-12 22:22:00,
2013-04-12 17:32:00,36.0,31.0,29.97,NW,317,10.0,-999.0,83,-99.99,,,-99.99,,2013-04-12 22:32:00,
2013-04-12 17:42:00,36.0,31.0,29.97,NW,317,10.0,-999.0,83,-99.99,,,-99.99,,2013-04-12 22:42:00,
2013-04-12 17:52:00,36.0,32.0,29.97,WNW,302,8.0,-999.0,84,-99.99,,,-99.99,,2013-04-12 22:52:00,
2013-04-12 18:03:00,36.0,32.0,29.97,NW,306,8.0,-999.0,84,-99.99,,,-99.99,,2013-04-12 23:03:00,
2013-04-12 18:12:00,36.0,32.0,29.97,NW,306,8.0,-999.0,84,-99.99,,,-99.99,,2013-04-12 23:12:00,
2013-04-12 18:22:00,36.0,32.0,29.97,NNW,328,7.0,-999.0,84,-99.99,,,-99.99,,2013-04-12 23:22:00,
2013-04-12 18:32:00,36.0,32.0,29.97,NW,321,6.0,-999.0,84,-99.99,,,-99.99,,2013-04-12 23:32:00,
2013-04-12 18:42:00,36.0,32.0,29.97,NW,321,6.0,-999.0,84,-99.99,,,-99.99,,2013-04-12 23:42:00,
2013-04-12 18:52:00,36.0,32.0,29.97,NW,325,5.0,-999.0,85,-99.99,,,-99.99,,2013-04-12 23:52:00,
2013-04-12 19:02:00,36.0,32.0,29.97,NNW,327,3.0,-999.0,84,-99.99,,,-99.99,,2013-04-13 00:02:00,
2013-04-12 19:12:00,36.0,32.0,29.97,NNW,327,3.0,-999.0,84,-99.99,,,-99.99,,2013-04-13 00:12:00,
2013-04-12 19:22:00,36.0,32.0,29.97,NNW,328,2.0,-999.0,84,-99.99,,,-99.99,,2013-04-13 00:22:00,
2013-04-12 19:32:00,36.0,32.0,29.97,NNW,329,0.0,-999.0,84,-99.99,,,-99.99,,2013-04-13 00:32:00,
2013-04-12 19:42:00,36.0,32.0,29.97,NNW,329,0.0,-999.0,84,-99.99,,,-99.99,,2013-04-13 00:42:00,
2013-04-12 19:52:00,36.0,32.0,29.96,NNW,329,0.0,-999.0,84,-99.99,,,-99.99,,2013-04-13 00:52:00,
2013-04-12 20:02:00,36.0,32.0,29.96,NNW,329,0.0,-999.0,84,-99.99,,,-99.99,,2013-04-13 01:02:00,
2013-04-12 20:12:00,36.0,32.0,29.96,NNW,329,0.0,-999.0,84,-99.99,,,-99.99,,2013-04-13 01:12:00,
2013-04-12 20:22:00,36.0,32.0,29.96,NNW,329,0.0,-999.0,84,-99.99,,,-99.99,,2013-04-13 01:22:00,
2013-04-12 20:32:00,36.0,31.0,29.96,NNW,329,0.0,-999.0,83,-99.99,,,-99.99,,2013-04-13 01:32:00,
2013-04-12 20:42:00,36.0,31.0,29.96,NNW,329,0.0,-999.0,83,-99.99,,,-99.99,,2013-04-13 01:42:00,
2013-04-12 20:52:00,35.0,30.0,29.95,NNW,329,0.0,-999.0,83,-99.99,,,-99.99,,2013-04-13 01:52:00,
2013-04-12 21:02:00,33.0,29.0,29.95,NNW,329,0.0,-999.0,86,-99.99,,,-99.99,,2013-04-13 02:02:00,
2013-04-12 21:12:00,33.0,29.0,29.95,NNW,329,0.0,-999.0,86,-99.99,,,-99.99,,2013-04-13 02:12:00,
2013-04-12 21:22:00,33.0,30.0,29.95,NNW,329,0.0,-999.0,87,-99.99,,,-99.99,,2013-04-13 02:22:00,
2013-04-12 21:32:00,32.0,29.0,29.95,NNW,329,0.0,-999.0,88,-99.99,,,-99.99,,2013-04-13 02:32:00,
2013-04-12 21:42:00,32.0,29.0,29.95,NNW,329,0.0,-999.0,88,-99.99,,,-99.99,,2013-04-13 02:42:00,
2013-04-12 21:53:00,31.0,28.0,29.95,NNW,329,0.0,-999.0,87,-99.99,,,-99.99,,2013-04-13 02:53:00,
2013-04-12 22:02:00,29.0,25.0,29.95,NNW,329,0.0,-999.0,85,-99.99,,,-99.99,,2013-04-13 03:02:00,
2013-04-12 22:12:00,29.0,25.0,29.95,NNW,329,0.0,-999.0,85,-99.99,,,-99.99,,2013-04-13 03:12:00,
2013-04-12 22:23:00,28.0,25.0,29.95,NNW,329,0.0,-999.0,89,-99.99,,,-99.99,,2013-04-13 03:23:00,
2013-04-12 22:33:00,27.0,24.0,29.95,NNW,329,0.0,-999.0,88,-99.99,,,-99.99,,2013-04-13 03:33:00,
2013-04-12 22:42:00,27.0,24.0,29.95,NNW,329,0.0,-999.0,88,-99.99,,,-99.99,,2013-04-13 03:42:00,
2013-04-12 22:53:00,26.0,23.0,29.95,NNW,329,0.0,-999.0,89,-99.99,,,-99.99,,2013-04-13 03:53:00,
2013-04-12 23:03:00,25.0,23.0,29.95,NNW,329,0.0,-999.0,91,-99.99,,,-99.99,,2013-04-13 04:03:00,
2013-04-12 23:12:00,25.0,23.0,29.95,NNW,329,0.0,-999.0,91,-99.99,,,-99.99,,2013-04-13 04:12:00,
2013-04-12 23:23:00,25.0,23.0,29.94,NNW,329,0.0,-999.0,92,-99.99,,,-99.99,,2013-04-13 04:23:00,
2013-04-12 23:33:00,24.0,22.0,29.94,NNW,329,0.0,-999.0,91,-99.99,,,-99.99,,2013-04-13 04:33:00,
2013-04-12 23:42:00,24.0,22.0,29.94,NNW,329,0.0,-999.0,91,-99.99,,,-99.99,,2013-04-13 04:42:00,
2013-04-12 23:53:00,23.0,21.0,29.94,NNW,329,0.0,-999.0,91,-99.99,,,-99.99,,2013-04-13 04:53:00,